{"data":{"norad_id":60934,"intl_designator":"2024-155L","name":"STARLINK-11237 [DTC]","alt_names":[],"object_type":"PAYLOAD","status":"ACTIVE","operator":null,"country":"US","launch_date":"2024-08-31","launch_site_code":"AFWTR","launch_vehicle":null,"mission":null,"orbit_class":"UNKNOWN","rcs_meters":null,"size_class":null,"mass_kg":null,"dimensions":null,"purposes":["comms"],"wikipedia_slug":null,"has_3d_model":false,"image_url":null,"decayed_at":null,"tle_current":{"epoch":"2026-09-21T20:02:42.531072Z","epoch_age_seconds":73153,"freshness":"FRESH","line1":"1 60934U 24155L   26264.83521448 -.00000204  00000+0  31704-5 0  9990","line2":"2 60934  53.1596  94.0044 0001069  93.8507 266.2633 15.69705724119221","mean_motion":15.69705724,"eccentricity":0.0001069,"inclination_deg":53.1596,"raan_deg":94.0044,"arg_perigee_deg":93.8507,"mean_anomaly_deg":266.2633,"bstar":3.1704e-6,"rev_number":11922,"period_min":91.736940114515,"perigee_km":359.01870777981,"apogee_km":360.45926566577,"semimajor_km":6737.8759867228,"source":"CELESTRAK","updated_at":"2026-09-22T09:00:49.291186Z"}}}